sat.trackr.live / text

‹ back to catalog

STARLINK-32706

NORAD 62308 · 2024-239H

PAYLOAD ACTIVE UNKNOWN

§ Identity

Operator
Country
US
Launch date
2024-12-13
Launch site
AFWTR
Launch vehicle
Mass (kg)
RCS (m²)

Purposes: comms

External: N2YO · Heavens-Above · Gunter

§ Orbital elements

Epoch: 2026-05-25T03:07:57.387648Z

Period
94.10 min
Inclination
53.1592°
Eccentricity
0.0001366
Mean motion
15.30209186 rev/d
Perigee alt
474.3 km
Apogee alt
476.1 km
Semi-major
6,853.3 km
B*
4.3211e-4
RAAN
199.1228°
Arg perigee
86.1069°
Mean anomaly
274.0088°
Rev number
8,108

§ Raw data

STARLINK-327061 62308U 24239H   26145.13052532  .00012464  00000+0  43211-3 0  99982 62308  53.1592 199.1228 0001366  86.1069 274.0088 15.30209186 81085

JSON: /api/v1/satellites/62308 · /tle

For live sub-satellite position, see the globe view (requires WebGL).

§ Visibility from observer

Set your observer location to see the next 7 days of passes ≥ 10°. The values pass through the URL so the page stays shareable.

No JS? Fill the form by hand. The geolocation button needs JavaScript.